Regional Weather Roundup
Issued by NWS

Home | Current Version | Previous Version | Graphics & Text | Print | Product List | Glossary On
Versions: 1 2 3 4 5 6 7 8 9 10 11 12 13 14 15 16 17 18 19 20 21 22 23 24 25 26 27 28 29 30 31 32 33 34 35 36 37 38 39 40 41 42 43 44 45 46 47 48 49 50
000
ASUS43 KIND 191509
RWRIN

WEATHER ROUNDUP FOR INDIANA
NATIONAL WEATHER SERVICE INDIANAPOLIS IN
1100 AM EDT FRI SEP 19 2014

NOTE: "FAIR" INDICATES FEW OR NO CLOUDS BELOW 12,000 FEET WITH NO
SIGNIFICANT WEATHER AND/OR OBSTRUCTIONS TO VISIBILITY.

* - STATION DOES NOT REPORT WEATHER SUCH AS PRECIPITATION OR FOG.

+ - STATION NOT QUALITY CONTROLLED BY THE NATIONAL WEATHER SERVICE.
    USE DATA WITH CAUTION...ESPECIALLY DEWPOINT AND RELATIVE
    HUMIDITY OBSERVATIONS.

INZ001>003-010>013-019-020-191600-
NORTHWEST INDIANA

CITY           SKY/WX    TMP DP  RH WIND       PRES   REMARKS
GARY /AIRPORT/ MOSUNNY   64  52  63 SE10      30.18S
KNOX *+        SUNNY     62  52  69 SE8       30.20R
LA PORTE +     SUNNY     60  53  76 SE7       30.21S
MICHIGAN CITY+ SUNNY     63  50  63 SE8       30.20S
MONTICELLO +   SUNNY     62  53  74 E3        30.19S
RENSSELAER +   SUNNY     63  55  77 SE8       30.20R
VALPARAISO     SUNNY     62  52  69 S7        30.21R

$$

LMZ046-743>745-191600-
SOUTHERN LAKE MICHIGAN

STATION/POSITION TIME  TEMP WIND        PRES
                       AIR  DIR/SP/G
                 (UTC) (F)  (DEG/KT/KT) (MB)
MICHIGAN CITY    1500   60  130/ 12/ 16   N/A

$$

INZ004-005-014>016-021>024-191600-
NORTH CENTRAL INDIANA

CITY           SKY/WX    TMP DP  RH WIND       PRES   REMARKS
ELKHART        SUNNY     61  52  72 SE9       30.22S
GOSHEN         SUNNY     62  53  72 SE12      30.22S
LOGANSPORT +   SUNNY     61  52  72 E9        30.21S
ROCHESTER +    SUNNY     63  54  72 SE8       30.22S
SOUTH BEND     SUNNY     62  53  72 S9        30.22S
WARSAW +       SUNNY     61  52  72 SE9       30.23S

$$

INZ006>009-017-018-025>027-191600-
NORTHEAST INDIANA

CITY           SKY/WX    TMP DP  RH WIND       PRES   REMARKS
ANGOLA *+      SUNNY     61  52  72 SE12      30.24F
AUBURN +       SUNNY     61  50  67 E8        30.25S
FORT WAYNE     MOSUNNY   59  52  77 E9        30.25R
HUNTINGTON +   SUNNY     58  53  82 E6        30.23F

$$

INZ028-029-035-036-043>045-051>053-191600-
WEST CENTRAL INDIANA

CITY           SKY/WX    TMP DP  RH WIND       PRES   REMARKS
GREENCASTLE +  SUNNY     63  52  67 SE9       30.18S
LAFAYETTE        N/A     63  53  70 SE9       30.18F
TERRE HAUTE    SUNNY     65  50  58 SE13      30.16F

$$

INZ030>032-037>040-046>048-054>057-064-065-191600-
CENTRAL INDIANA

CITY           SKY/WX    TMP DP  RH WIND       PRES   REMARKS
ANDERSON       SUNNY     64  50  59 SE12      30.22R
CP ATTERBURY + SUNNY     64  54  68 E6        30.19R
COLUMBUS       SUNNY     64  54  68 CALM      30.19R
FRANKFORT +    SUNNY     64  54  68 E9        30.20S
INDIANAPOLIS   MOSUNNY   65  50  58 E10       30.18S
-EAGLE CREEK   SUNNY     64  49  57 E9        30.19R
KOKOMO *+      SUNNY     63  52  67 E7        30.22R
MARION +       SUNNY     62  50  66 E8        30.22S
MT COMFORT *+  SUNNY     64  45  48 SE8       30.20S
SHELBYVILLE    SUNNY     67  51  56 E8        30.18F
ZIONSVILLE +   SUNNY     64  52  64 E5        30.21S

$$

INZ033-034-041-042-049-050-058-059-191600-
EAST CENTRAL INDIANA

CITY           SKY/WX    TMP DP  RH WIND       PRES   REMARKS
MUNCIE         SUNNY     63  52  67 E7        30.21R

$$

INZ060-061-067>069-081>083-085>088-191600-
SOUTHWEST INDIANA

CITY           SKY/WX    TMP DP  RH WIND       PRES   REMARKS
EVANSVILLE     SUNNY     67  52  58 E7        30.13R
WASHINGTON +   SUNNY     67  52  59 E12       30.15S

$$

INZ062-063-066-070>080-084-089>092-191600-
SOUTH CENTRAL AND SOUTHEAST INDIANA

CITY           SKY/WX    TMP DP  RH WIND       PRES   REMARKS
BEDFORD +      SUNNY     66  48  52 E7        30.17
BLOOMINGTON    SUNNY     65  49  56 SE9G18    30.17S
NORTH VERNON + SUNNY     66  50  55 E6        30.18S HAZE

$$



USA.gov is the U.S. government's official web portal to all federal, state and local government web resources and services.